Simultaneous Nadir Overpasses (SNOs) Predictions

Prediction of SNOs over PacNW region [( 10.00, 139.50) to ( 22.70, 165.60)] between NOAA-19 and NPP Satellites:

Table of predicted SNOs over PacNW region for the next 30.0 days since TLE Epoch: 11/10/2012
Index Date (NOAA-19) Time (NOAA-19) NOAA-19 Lat,Lon Date (NPP) Time (NPP) NPP Lat,Lon Distance(km) Time Diff (sec)
1 11/15/2012 03:31:15 11.26, 148.95 11/15/2012 03:34:30 10.45, 145.52 385.47 195
2 11/15/2012 16:08:12 19.01, 144.55 11/15/2012 16:07:09 19.53, 142.07 266.72 63
3 11/16/2012 03:23:38 22.66, 148.91 11/16/2012 03:20:02 26.54, 146.37 502.83 216
4 11/27/2012 15:38:55 22.62, 152.55 11/27/2012 15:40:41 23.36, 149.36 336.89 106
5 11/28/2012 02:55:21 22.69, 156.01 11/28/2012 02:53:24 22.22, 153.82 230.68 117
6 12/09/2012 15:10:30 22.61, 159.69 12/09/2012 15:14:06 27.27, 156.73 597.76 216
7 12/10/2012 02:25:59 19.34, 163.99 12/10/2012 02:26:56 18.67, 161.06 317.11 57




NCC Satellite Simultaneous Nadir Overpasses (SNOs) Prediction Service
